DECAYED

COSMOS 2251 DEB, 34561 (Decayed)

Orbit data source: Space-Track

COSMOS 2251 DEB, 34561 was space debris in LEO originally from a launch on Wed, 16 Jun 1993 UTC launched from the Plesetsk Missile And Space Complex (PKMTR). The debris from Iridium 33, an American commercial communications satellite, has been tracked extensively since its accidental collision with the defunct Russian satellite Cosmos 2251 in 2009. This event, occurring at high speed in low Earth orbit (LEO), generated thousands of pieces of space debris, significantly increasing the risk of further collisions. The Iridium 33 debris cloud has impacted space traffic management and orbital debris mitigation strategies, making it a subject of ongoing study in space situational awareness.

Loading next visibility...
Identifier
34561, 1993-036UX
Orbit
Decayed
Country
Flag of CISCIS
Related business
Manufacturer
Unknown
Mission
Decayed spacecraft
Bus & Motor
Unknown
Mass
Unknown
Launch date (UTC)
1993-06-16 (33 years ago)
Launch vehicle
Unknown
Launch site
Plesetsk Missile And Space Complex (PKMTR)
Object type
Payload
Rocket body
Debris
Shape & HBR
Unknown shape, 0.1 m
Radar Cross Section
Medium (>0.1 m² and <1 m²)

Expand to show TLE details & history
Last TLE update: 2 years ago

TLE from 2 years ago
0 COSMOS 2251 DEB
1 34561U 93036UX  25014.92742188  .06261662  40033+0  94718-2 0  9992
2 34561  73.9609 213.7354 0005217 344.2711  15.8373 16.17179949841180
Epoch: 2025-01-14T22:15Z
TLE epoch observation values (Epoch: 2025-01-14T22:15:29.250Z)
Latitude
-0.00007°
Longitude
125.23641°
Altitude
226.726 km
Speed
7.773 km/s
True Right ascension
14h 14m 56s
True Declination
0° 00' 00"
Sunlit
Object was in daylight at epoch
Visualization orbit readout
Latitude
Unknown
Longitude
Unknown
Altitude
Unknown
Speed
Unknown
Apparent Right ascension
Unknown
Apparent Declination
Unknown
Sunlit
N/A
Visualization observer readout
Local Sidereal Time
07:02:26
Azimuth
Unknown
Elevation
Unknown
Doppler factor
Unknown
Orbital elements
Apogee altitude
228.099 km
Perigee altitude
221.21 km
Semi-major axis
6,602.791 km
Eccentricity
0.00052
Inclination
73.9609°
RAAN
213.7354°
Arg. of periapsis
344.2711°
True anomaly
15.85363°
Mean anomaly
15.8373°
Eccentric anomaly
15.84546°
Mean motion
4.04531 °/min
Orbital period
88.99 mins
BSTAR
0.0094718
Loading maneuver chart data...
Computing Atmospheric mass density...

Documentation

Showing up to 5 results
|